Weather History for Shenandoah, IA

Change the Weather History Date:

Thursday, January 17, 2013

  Actual Average Record
Temperature  
Mean Temperature 32 °F -  
Max Temperature 44 °F 32 °F 65 °F (1990)
Min Temperature 19 °F 12 °F -14 °F (1997)
Degree Days  
Heating Degree Days 34    
Moisture  
Dew Point 24 °F    
Average Humidity 71    
Maximum Humidity 86    
Minimum Humidity 53    
Precipitation  
Precipitation 0.00 in - - ()
Sea Level Pressure  
Sea Level Pressure 30.39 in    
Wind  
Wind Speed 4 mph (NNW)    
Max Wind Speed 7 mph    
Max Gust Speed -    
Visibility 10 miles    
Events      
Averages and records for this station are not official NWS values.
T = Trace of Precipitation, MM = Missing Value Source: NWS Daily Summary

Daily Weather History Graph

Daily Weather History Graph

Search for Another Location

Airport:

Trip Planner

Search our weather history database for the weather conditions in past years. The results will help you decide how hot, cold, wet, or windy it might be!

Date:

Astronomy

Jan. 17, 2013 Rise Set
Actual Time 7:42 AM CST 5:21 PM CST
Civil Twilight 7:12 AM CST 5:51 PM CST
Nautical Twilight 6:39 AM CST 6:25 PM CST
Astronomical Twilight 6:06 AM CST 6:57 PM CST
Moon 10:47 AM CST (1/17) No Moon Set
Length of Visible Light 10h 38m
Length of Day
9h 38m
Waxing Crescent, 38% of the Moon is Illuminated
Jan 17
Waxing Crescent
Jan 18
First Quarter
Jan 26
Full
Feb 3
Last Quarter
Feb 10
New

Hourly Weather History & Observations

Time (CST) Temp. Windchill Dew Point Humidity Pressure Visibility Wind Dir Wind Speed Gust Speed Precip Events Conditions
12:15 AM 35.6 °F 29.9 °F 28.4 °F 75% 30.24 in 10.0 mi NNE 6.9 mph - N/A   Scattered Clouds
12:35 AM 33.8 °F 27.7 °F 28.4 °F 81% 30.27 in 10.0 mi North 6.9 mph - N/A   Scattered Clouds
12:55 AM 33.8 °F 28.6 °F 26.6 °F 75% 30.28 in 10.0 mi North 5.8 mph - N/A   Scattered Clouds
1:15 AM 32.0 °F 28.7 °F 26.6 °F 80% 30.30 in 10.0 mi North 3.5 mph - N/A   Scattered Clouds
1:35 AM 30.2 °F 26.7 °F 24.8 °F 80% 30.30 in 10.0 mi North 3.5 mph - N/A   Scattered Clouds
2:15 AM 28.4 °F - 23.0 °F 80% 30.32 in 10.0 mi Calm Calm - N/A   Scattered Clouds
2:35 AM 28.4 °F 23.3 °F 24.8 °F 86% 30.32 in 10.0 mi North 4.6 mph - N/A   Scattered Clouds
2:55 AM 28.4 °F - 24.8 °F 86% 30.33 in 10.0 mi Calm Calm - N/A   Scattered Clouds
3:15 AM 28.4 °F 22.2 °F 24.8 °F 86% 30.33 in 10.0 mi NNW 5.8 mph - N/A   Scattered Clouds
3:35 AM 28.4 °F 23.3 °F 24.8 °F 86% 30.34 in 10.0 mi NNW 4.6 mph - N/A   Scattered Clouds
3:55 AM 28.4 °F 24.6 °F 23.0 °F 80% 30.35 in 10.0 mi NW 3.5 mph - N/A   Scattered Clouds
4:15 AM 28.4 °F - 23.0 °F 80% 30.36 in 10.0 mi Calm Calm - N/A   Scattered Clouds
4:35 AM 28.4 °F - 21.2 °F 74% 30.36 in 10.0 mi Calm Calm - N/A   Scattered Clouds
4:55 AM 24.8 °F 20.5 °F 19.4 °F 80% 30.36 in 10.0 mi North 3.5 mph - N/A   Scattered Clouds
5:15 AM 24.8 °F 20.5 °F 19.4 °F 80% 30.38 in 10.0 mi North 3.5 mph - N/A   Scattered Clouds
5:35 AM 24.8 °F - 19.4 °F 80% 30.38 in 10.0 mi Calm Calm - N/A   Scattered Clouds
5:55 AM 26.6 °F 22.6 °F 21.2 °F 80% 30.39 in 10.0 mi NW 3.5 mph - N/A   Scattered Clouds
6:15 AM 26.6 °F - 21.2 °F 80% 30.40 in 10.0 mi Calm Calm - N/A   Scattered Clouds
6:35 AM 23.0 °F 17.0 °F 17.6 °F 80% 30.40 in 10.0 mi NNE 4.6 mph - N/A   Scattered Clouds
6:55 AM 19.4 °F 12.8 °F 15.8 °F 86% 30.41 in 10.0 mi NNE 4.6 mph - N/A   Scattered Clouds
7:15 AM 24.8 °F - 19.4 °F 80% 30.42 in 10.0 mi Calm Calm - N/A   Scattered Clouds
7:35 AM 23.0 °F - 17.6 °F 80% 30.41 in 10.0 mi Calm Calm - N/A   Scattered Clouds
7:55 AM 23.0 °F - 17.6 °F 80% 30.43 in 7.0 mi Calm Calm - N/A   Scattered Clouds
8:15 AM 21.2 °F 14.9 °F 15.8 °F 80% 30.44 in 7.0 mi NNE 4.6 mph - N/A   Clear
8:35 AM 24.8 °F 19.1 °F 19.4 °F 80% 30.45 in 10.0 mi NE 4.6 mph - N/A   Mostly Cloudy
8:55 AM 26.6 °F 20.0 °F 21.2 °F 80% 30.46 in 10.0 mi NE 5.8 mph - N/A   Overcast
9:15 AM 28.4 °F - 21.2 °F 74% 30.46 in 10.0 mi Calm Calm - N/A   Mostly Cloudy
9:35 AM 28.4 °F 23.3 °F 19.4 °F 69% 30.46 in 10.0 mi NE 4.6 mph - N/A   Clear
9:55 AM 30.2 °F 25.4 °F 19.4 °F 64% 30.47 in 10.0 mi NE 4.6 mph - N/A   Clear
10:15 AM 30.2 °F 26.7 °F 19.4 °F 64% 30.48 in 10.0 mi NE 3.5 mph - N/A   Clear
10:35 AM 33.8 °F 29.6 °F 21.2 °F 60% 30.48 in 10.0 mi NE 4.6 mph - N/A   Clear
10:55 AM 33.8 °F - 21.2 °F 60% 30.48 in 10.0 mi Calm Calm - N/A   Clear
11:15 AM 33.8 °F - 21.2 °F 60% 30.48 in 10.0 mi Calm Calm - N/A   Clear
11:35 AM 35.6 °F 31.7 °F 23.0 °F 60% 30.47 in 10.0 mi West 4.6 mph - N/A   Clear
11:55 AM 37.4 °F 32.8 °F 24.8 °F 60% 30.46 in 10.0 mi WSW 5.8 mph - N/A   Clear
12:15 PM 37.4 °F 32.1 °F 24.8 °F 60% 30.46 in 10.0 mi WSW 6.9 mph - N/A   Clear
12:35 PM 39.2 °F 35.0 °F 24.8 °F 56% 30.45 in 10.0 mi SSW 5.8 mph - N/A   Clear
12:55 PM 41.0 °F 39.0 °F 26.6 °F 57% 30.44 in 10.0 mi WSW 3.5 mph - N/A   Clear
1:15 PM 42.8 °F 40.1 °F 26.6 °F 53% 30.43 in 10.0 mi WNW 4.6 mph - N/A   Clear
1:35 PM 42.8 °F - 26.6 °F 53% 30.42 in 10.0 mi Calm Calm - N/A   Clear
1:55 PM 44.6 °F 43.1 °F 28.4 °F 53% 30.42 in 10.0 mi West 3.5 mph - N/A   Clear
2:15 PM 44.6 °F 41.4 °F 28.4 °F 53% 30.41 in 10.0 mi West 5.8 mph - N/A   Clear
2:35 PM 44.6 °F 42.2 °F 28.4 °F 53% 30.41 in 10.0 mi SW 4.6 mph - N/A   Clear
2:55 PM 44.6 °F 40.7 °F 28.4 °F 53% 30.41 in 10.0 mi WSW 6.9 mph - N/A   Clear
3:15 PM 44.6 °F - 30.2 °F 57% 30.41 in 10.0 mi Calm Calm - N/A   Clear
3:35 PM 44.6 °F - 30.2 °F 57% 30.41 in 10.0 mi Calm Calm - N/A   Clear
3:55 PM 44.6 °F - 30.2 °F 57% 30.41 in 10.0 mi Calm Calm - N/A   Clear
4:55 PM 44.6 °F - 30.2 °F 57% 30.41 in 10.0 mi Calm Calm - N/A   Clear
5:35 PM 41.0 °F - 28.4 °F 61% 30.41 in 10.0 mi Calm Calm - N/A   Scattered Clouds
7:55 PM 30.2 °F - 24.8 °F 80% 30.41 in 7.0 mi Calm Calm - N/A   Scattered Clouds
8:15 PM 28.4 °F - 21.2 °F 74% 30.40 in 7.0 mi Calm Calm - N/A   Scattered Clouds
8:55 PM 28.4 °F - 23.0 °F 80% 30.39 in 7.0 mi Calm Calm - N/A   Clear
9:15 PM 26.6 °F - 21.2 °F 80% 30.38 in 5.0 mi Calm Calm - N/A   Haze
9:35 PM 28.4 °F - 23.0 °F 80% 30.37 in 5.0 mi Calm Calm - N/A   Haze
9:55 PM 28.4 °F - 23.0 °F 80% 30.37 in 7.0 mi Calm Calm - N/A   Scattered Clouds
11:15 PM 33.8 °F 28.6 °F 26.6 °F 75% 30.34 in 10.0 mi SSE 5.8 mph - N/A   Scattered Clouds
11:35 PM 33.8 °F - 26.6 °F 75% 30.34 in 10.0 mi Calm Calm - N/A   Scattered Clouds
11:55 PM 33.8 °F 28.6 °F 26.6 °F 75% 30.33 in 10.0 mi South 5.8 mph - N/A   Clear